Location: Bazugues
(43.4465°N, 0.3432°E)
Time: 09:02:23
(UTC+00:00)

SJ-12 - Pass Details

Date: 12 January 2026
Orbit: 514 x 525 km, 97.8° (Epoch: 18 February)

Event Time Altitude Azimuth Distance (km) Brightness Sun altitude
Rises 17:55:55 0° 174° (S) 2,641 7.5 -12.7°
Reaches altitude 10° 17:58:02 10° 178° (S) 1,760 6.6 -13.1°
Maximum altitude 18:01:47 60° 259° (W) 609 4.3 -13.7°
Drops below altitude 10° 18:05:35 10° 340° (NNW) 1,780 6.5 -14.4°
Sets 18:07:43 0° 344° (NNW) 2,675 7.3 -14.7°
